Regional Weather Roundup
Issued by NWS

Home | Current Version | Previous Version | Graphics & Text | Print | Product List | Glossary On
Versions: 1 2 3 4 5 6 7 8 9 10 11 12 13 14 15 16 17 18 19 20 21 22 23 24 25 26 27 28 29 30 31 32 33 34 35 36 37 38 39 40 41 42 43 44 45 46 47 48 49 50
000
ASUS43 KOAX 261302
RWRNE

WEATHER ROUNDUP FOR NEBRASKA
NATIONAL WEATHER SERVICE OMAHA NE
800 AM CDT SAT JUL 26 2014

NOTES: SATELLITE DATA IS BEING USED TO AUGMENT CLOUD COVER ABOVE
       12000 FEET.
       "FAIR" INDICATES FEW OR NO CLOUDS BELOW 12,000 FEET WITH NO
       SIGNIFICANT WEATHER AND/OR OBSTRUCTIONS TO VISIBILITY.

  * THESE STATIONS DO NOT REPORT WEATHER SUCH AS RAIN...SNOW OR FOG.

NEZ001>004-019>022-054>056-261400-
NEBRASKA PANHANDLE

CITY           SKY/WX    TMP DP  RH WIND       PRES   REMARKS
SCOTTSBLUFF    MOSUNNY   67  53  61 NW12      30.04R
ALLIANCE       MOSUNNY   61  54  77 W7        30.02R
CHADRON        MOSUNNY   66  53  63 W8        30.01R
KIMBALL        SUNNY     68  48  48 NW18G24   30.07R
SIDNEY         SUNNY     70  50  49 W6        30.06R
$$

NEZ057>060-069>072-079>082-261400-
SOUTHWEST NEBRASKA

CITY           SKY/WX    TMP DP  RH WIND       PRES   REMARKS
NORTH PLATTE   SUNNY     72  67  84 SE3       29.89R
IMPERIAL       SUNNY     71  59  65 W12       29.94R
LEXINGTON      SUNNY     72  69  92 W3        29.88R FOG
MCCOOK         SUNNY     73  65  75 W8        29.90R
OGALLALA       SUNNY     63  60  90 W5        29.93R
$$

NEZ005>010-023>029-035>040-094-261400-
NORTH CENTRAL NEBRASKA

CITY           SKY/WX    TMP DP  RH WIND       PRES   REMARKS
VALENTINE      SUNNY     72  69  90 NE3       29.85S FOG
AINSWORTH      MOSUNNY   71  71 100 SE8       29.86R FOG
BROKEN BOW     SUNNY     72  68  87 CALM      29.87F
O`NEILL        MOSUNNY   74  71  89 S9        29.88R FOG
ORD            SUNNY     75  73  93 SE8       29.84F FOG
$$

NEZ041-046>049-061>064-073>077-083>087-261400-
SOUTH CENTRAL NEBRASKA

CITY           SKY/WX    TMP DP  RH WIND       PRES   REMARKS
GRAND ISLAND   FOG       75  74  96 NE8       29.84F VSB 1/4
AURORA         CLOUDY    76  76 100 E8        29.85S FOG
HASTINGS       CLOUDY    75  71  87 E7        29.86R FOG
HEBRON         CLOUDY    77  73  86 NE9       29.81F FOG
HOLDREGE       MOSUNNY   71  69  91 CALM      29.88R FOG
KEARNEY *      MOSUNNY   73  70  88 E6        29.87R
YORK           PTSUNNY   75  75 100 NE6       29.84F FOG
$$

NEZ011>018-030>034-042>045-261400-
NORTHEAST NEBRASKA

CITY           SKY/WX    TMP DP  RH WIND       PRES   REMARKS
NORFOLK        SUNNY     74  71  91 N3        29.87R FOG
ALBION         CLOUDY    75  73  92 CALM      29.87S FOG
BLAIR          PTSUNNY   72  70  94 CALM      29.83R FOG
COLUMBUS *     PTSUNNY   55 N/A N/A N6        29.85R
FREMONT        MOSUNNY   76  73  90 N5        29.83F
WAYNE          SUNNY     73  71  95 N5        29.90R FOG
$$

NEZ050>053-065>068-078-088>093-261400-
SOUTHEAST NEBRASKA

CITY           SKY/WX    TMP DP  RH WIND       PRES   REMARKS
LINCOLN        PTSUNNY   76  72  87 N5        29.82R
OMAHA EPPLEY   PTSUNNY   75  70  84 NE3       29.82R
BEATRICE       CLOUDY    75  74  97 E5        29.81R FOG
FALLS CITY     CLOUDY    76  72  87 CALM      29.79R
NEBRASKA CITY  CLOUDY    73  73 100 NE7       29.80S
PLATTSMOUTH    CLOUDY    73  70  92 CALM      29.82R FOG
$$

NEZ044-045-051>053-067-261400-
OMAHA AREA

CITY           SKY/WX    TMP DP  RH WIND       PRES   REMARKS
OMAHA EPPLEY   PTSUNNY   75  70  84 NE3       29.82R
BLAIR          PTSUNNY   72  70  94 CALM      29.83R FOG
FREMONT        MOSUNNY   76  73  90 N5        29.83F
MILLARD        PTSUNNY   76  72  86 CALM      29.81S
OFFUTT AFB     PTSUNNY   74  74 100 NE3       29.81R
PLATTSMOUTH    CLOUDY    73  70  92 CALM      29.82R FOG
WAHOO          FAIR      75  72  90 CALM      29.83R FOG
$$


USA.gov is the U.S. government's official web portal to all federal, state and local government web resources and services.